Lapse_Rate
5.7 5.4 5.3 5.4 5.5 5.6 5.7 5.9 6.1 6.3 6.5 6.6 6.7 6.6 6.4 6.3 6.2 6.1 5.9 5.8 6.6 6.0 6.4 6.3 6.3 5.7 5.5 5.8 5.9 5.7 5.5 5.7 5.5 5.5 5.0 5.0 5.0 5.1 4.8 4.9 5.1 5.0 5.2
5.7 5.7 5.6 5.6 5.6 5.9 6.0 6.1 6.3 6.5 6.5 6.5 6.5 6.3 6.3 6.3 5.9 5.4 5.6 5.9 5.9 6.4 6.5 6.0 6.3 5.8 5.7 5.9 5.8 6.0 5.6 5.4 5.1 4.7 5.2 4.8 5.1 4.8 5.0 5.3 5.6 6.4 6.3
5.1 5.1 5.2 5.2 5.6 5.7 6.1 6.4 6.5 6.6 6.7 6.7 6.8 6.7 6.4 6.1 5.9 5.6 5.5 5.7 6.1 5.9 5.9 6.3 6.1 6.1 5.8 5.8 5.4 5.1 4.8 5.1 5.2 5.1 5.0 5.0 5.2 5.4 5.7 6.1 6.4 6.2 6.0
5.1 5.4 5.5 5.7 5.9 6.1 6.1 6.0 5.8 6.1 6.3 6.6 6.4 6.4 6.2 6.0 5.6 5.5 5.9 5.4 5.2 5.4 5.3 5.5 5.7 5.2 5.3 5.1 4.9 5.7 5.4 5.2 5.4 5.4 5.9 6.3 6.2 5.9 5.8 5.6 5.5 5.8 5.8
5.5 5.6 5.6 5.9 5.9 5.8 6.0 6.0 6.0 6.1 5.9 6.2 6.3 5.9 6.1 5.9 5.5 5.4 5.3 5.2 5.4 5.3 5.6 5.4 5.0 6.0 6.0 5.8 5.3 5.0 5.0 5.5 5.9 6.1 6.0 5.7 5.5 5.4 5.3 5.3 5.5 5.6 5.5
5.6 5.5 5.6 5.4 5.1 5.0 5.0 5.3 4.9 4.8 4.9 4.9 4.8 4.9 5.0 5.3 5.3 5.3 4.7 4.2 4.7 5.2 5.3 5.3 5.5 5.3 5.3 5.1 5.1 5.7 6.1 6.0 5.6 5.4 5.3 5.4 5.4 5.2 5.2 5.3 5.4 5.5 5.6
4.9 5.0 5.0 4.9 4.6 4.7 4.5 4.7 5.0 4.9 5.0 4.9 4.4 4.3 4.7 5.2 5.1 4.9 5.1 5.0 5.0 5.2 5.1 5.1 5.2 5.2 5.3 5.7 5.6 5.6 5.6 5.4 5.0 4.8 4.8 4.9 4.8 5.0 5.1 5.0 4.9 5.0 5.0
4.5 4.6 4.5 4.5 4.7 4.4 4.4 4.5 4.4 4.2 4.7 4.9 5.1 5.1 5.1 5.0 5.1 5.0 4.9 4.9 4.9 5.3 5.3 6.0 5.6 5.4 5.5 5.6 5.4 5.2 4.8 4.6 4.6 4.6 4.5 4.3 4.2 4.3 4.5 4.5 4.6 4.9 5.1
4.6 4.7 4.6 4.7 4.8 4.8 4.6 4.6 4.9 5.5 5.2 4.8 4.8 5.0 5.2 5.2 5.2 5.6 5.9 6.0 6.0 5.7 5.6 5.3 5.1 4.9 4.8 4.6 4.5 4.4 4.2 4.2 4.2 4.2 4.3 4.3 4.4 4.4 4.5 4.6 4.6 4.7 5.0
5.0 5.0 5.0 5.0 4.8 4.9 5.0 5.0 5.1 5.1 5.0 5.1 5.0 5.3 5.5 5.6 5.4 5.4 5.4 5.3 5.0 4.7 4.6 4.4 4.4 4.4 4.4 4.3 4.2 4.3 4.3 4.3 4.3 4.2 4.0 4.0 4.1 4.1 4.1 4.2 4.3 4.5 4.5
4.6 4.7 4.7 4.7 4.7 4.7 4.8 4.8 4.9 5.0 5.0 5.0 5.1 5.1 5.0 4.9 4.8 4.6 4.5 4.4 4.5 4.6 4.5 4.4 4.3 4.4 4.4 4.4 4.4 4.4 4.4 4.5 4.4 4.4 4.3 4.3 4.3 4.3 4.2 4.1 4.1 4.2 4.2
4.6 4.6 4.5 4.4 4.4 4.4 4.5 4.6 4.7 4.6 4.6 4.6 4.6 4.6 4.8 4.9 4.9 5.0 4.9 4.6 4.5 4.5 4.7 4.7 4.7 4.7 4.6 4.6 4.6 4.5 4.4 4.4 4.3 4.2 4.2 4.2 4.2 4.1 4.1 4.1 4.2 4.3 4.3
4.7 4.6 4.4 4.3 4.4 4.5 4.5 4.5 4.5 4.5 4.6 4.7 4.7 4.9 4.9 4.8 4.7 4.6 4.6 4.5 4.3 4.2 4.1 4.1 4.1 4.1 4.1 4.2 4.3 4.2 4.2 4.3 4.4 4.4 4.3 4.3 4.2 4.2 4.1 4.2 4.2 4.0 4.2
4.7 4.5 4.5 4.5 4.5 4.4 4.3 4.3 4.3 4.4 4.4 4.4 4.4 4.4 4.3 4.2 4.1 4.0 3.9 3.9 4.1 4.2 4.3 4.3 4.3 4.3 4.5 4.5 4.3 4.2 4.2 4.2 4.3 4.3 4.3 4.1 4.1 4.1 4.0 3.9 4.1 4.0 4.2
5.0 4.7 4.5 4.4 4.3 4.3 4.4 4.4 4.5 4.6 4.6 4.6 4.6 4.5 4.4 4.3 4.3 4.4 4.5 4.5 4.5 4.4 4.3 4.1 3.9 3.9 3.9 3.9 4.1 4.3 4.3 4.3 4.3 4.2 4.1 3.9 3.9 4.0 4.1 4.0 4.0 4.0 4.1
5.1 5.0 5.0 5.0 5.1 5.1 5.0 4.9 4.9 4.8 4.8 4.6 4.5 4.4 4.4 4.5 4.4 4.3 4.3 4.4 4.3 4.3 4.1 3.9 3.8 4.0 4.1 4.2 4.3 4.3 4.3 4.3 4.3 4.2 4.0 4.0 4.1 4.1 4.0 4.0 3.9 4.0 4.2
5.0 5.0 5.0 4.9 4.9 5.0 5.0 5.0 5.0 4.8 4.7 4.5 4.4 4.4 4.4 4.4 4.3 4.3 4.3 4.4 4.2 4.2 4.1 4.0 4.0 4.0 4.2 4.4 4.4 4.4 4.5 4.4 4.5 4.2 4.0 4.0 4.2 4.1 4.1 4.1 4.1 4.2 4.3
5.2 5.0 4.9 5.0 5.1 5.0 4.9 4.8 4.8 4.6 4.6 4.6 4.7 4.5 4.2 4.4 4.4 4.2 4.3 4.5 4.3 4.2 4.2 4.3 4.4 4.4 4.4 4.5 4.3 4.3 4.4 4.5 4.3 4.2 4.1 4.1 4.0 3.9 4.1 4.1 4.2 4.3 4.3
5.0 5.0 5.0 5.0 4.9 4.8 4.8 4.8 4.7 4.6 4.6 4.5 4.5 4.4 4.1 4.4 4.6 4.4 4.1 4.2 4.2 4.4 4.5 4.6 4.6 4.7 4.6 4.4 4.2 4.3 4.4 4.4 4.2 4.0 4.0 4.0 3.9 3.8 4.1 4.2 4.4 4.4 4.4
5.0 5.0 5.0 5.2 5.3 5.3 5.2 5.0 4.8 4.8 4.8 4.7 4.6 4.3 4.0 4.1 4.4 4.5 4.3 4.2 4.2 4.4 4.6 4.7 4.8 4.8 4.7 4.5 4.2 4.1 4.3 4.4 4.1 4.0 4.0 4.0 3.9 4.0 4.2 4.3 4.5 4.5 4.5
5.3 5.2 5.2 5.3 5.3 5.2 5.1 5.0 4.9 4.9 5.0 4.9 4.8 4.5 4.3 4.1 4.4 4.3 4.2 4.4 4.4 4.4 4.7 4.9 4.8 4.9 4.6 4.5 4.3 4.2 4.3 4.4 4.0 3.9 3.9 3.9 3.9 4.2 4.3 4.5 4.6 4.5 4.4
5.3 5.2 5.3 5.4 5.4 5.4 5.2 4.9 4.8 4.9 5.2 5.1 4.9 4.7 4.3 4.1 4.2 4.4 4.6 4.6 4.5 4.7 4.8 4.8 4.8 4.6 4.6 4.4 4.4 4.3 4.3 4.3 4.0 3.9 4.0 3.9 4.0 4.4 4.5 4.8 4.7 4.6 4.6
5.7 5.7 5.7 5.7 5.4 5.2 5.1 5.0 4.9 5.0 4.9 4.7 4.7 4.4 4.3 4.5 4.5 4.8 4.8 4.8 4.9 4.8 5.0 4.9 4.8 4.8 4.7 4.5 4.6 4.5 4.3 4.0 3.8 3.9 3.8 3.9 4.1 4.6 4.8 4.8 4.7 4.5 4.5
6.0 6.2 6.1 5.6 5.5 5.4 5.3 5.2 5.2 5.3 5.0 4.8 4.9 4.5 4.5 4.7 5.0 5.2 4.9 5.0 5.1 5.0 4.9 4.9 4.8 4.9 4.9 4.8 4.9 4.6 4.4 4.2 4.0 4.0 3.8 3.8 4.4 5.0 5.0 4.8 4.5 4.6 4.6
5.8 5.9 5.8 5.8 5.7 5.5 5.4 5.3 5.2 5.0 4.9 5.0 4.9 4.8 5.1 5.2 5.2 5.2 5.2 5.3 5.3 5.5 5.4 5.2 5.3 5.1 5.0 5.0 4.8 4.7 4.5 4.3 4.1 3.9 3.8 4.1 4.8 5.0 4.7 4.3 4.5 4.4 4.2
5.7 5.6 5.6 5.5 5.5 5.4 5.4 5.4 5.3 5.0 4.9 4.9 4.7 4.7 5.2 5.2 5.1 5.2 5.3 5.2 5.5 5.6 5.5 5.4 5.3 5.2 5.1 5.0 4.8 4.6 4.4 4.2 4.0 3.9 3.9 4.6 5.0 5.1 4.9 5.0 4.9 4.3 4.0
Wind_Speed
8 8 8 8 9 8 8 7 7 8 8 9 10 11 12 13 12 14 14 15 13 11 14 14 13 11 8 8 9 7 7 5 6 3 2 7 5 3 1 3 4 6 7
8 9 9 9 9 9 9 9 9 10 11 12 12 13 14 14 13 14 15 11 15 14 13 11 14 9 14 9 8 10 8 6 3 8 5 2 1 1 2 4 5 6 9
8 9 9 9 10 10 10 10 11 12 13 14 14 15 14 15 14 14 14 15 15 14 14 8 14 11 14 10 9 7 7 6 6 5 4 2 2 2 3 5 4 7 10
9 9 9 10 10 10 11 11 12 13 14 14 14 14 14 13 13 13 15 13 12 12 12 15 13 11 13 10 7 8 6 6 7 6 4 3 1 1 3 4 4 4 6
10 10 10 10 10 11 12 12 13 14 13 13 13 13 13 13 9 12 14 11 11 10 13 15 11 14 21 15 7 7 5 6 5 4 4 1 1 3 4 3 5 7 7
9 10 9 10 11 12 12 12 13 13 13 12 12 12 12 9 20 19 13 9 9 10 11 10 11 12 14 17 16 16 11 7 5 2 2 2 2 2 3 4 5 7 4
9 9 9 9 11 10 10 10 11 11 11 12 11 11 12 11 18 17 16 8 9 9 10 9 9 7 8 8 10 11 12 11 7 3 2 2 4 4 5 7 7 7 8
9 9 9 9 9 9 8 9 8 8 10 9 10 10 11 10 15 15 15 10 9 10 9 9 8 8 7 6 6 6 5 3 2 2 3 4 6 7 7 7 9 10 9
7 7 7 7 8 7 7 8 7 7 8 8 7 9 9 9 11 10 9 7 9 9 9 7 5 6 10 10 5 5 5 4 5 6 9 13 16 18 16 6 6 6 7
5 5 5 6 6 6 6 7 6 7 8 6 9 8 8 8 11 10 8 5 6 4 4 5 7 6 7 8 5 5 4 6 6 5 6 11 13 12 14 10 5 6 5
4 4 5 5 5 5 6 5 5 6 7 6 6 5 5 4 7 10 9 5 4 3 3 2 2 7 10 10 9 5 6 7 7 4 6 5 5 6 8 10 11 6 7
4 4 4 3 3 4 4 4 3 4 4 3 4 4 3 4 6 6 7 6 3 2 3 2 2 6 10 10 8 9 11 11 3 5 5 6 6 6 6 9 12 14 18
4 4 4 3 3 3 3 3 3 2 2 3 2 2 2 1 1 1 2 3 2 2 2 5 10 12 13 9 11 12 10 4 4 6 6 7 6 6 10 9 16 18 20
3 3 3 2 3 2 2 2 2 2 2 3 3 3 3 3 2 1 1 2 4 4 4 3 6 10 12 10 4 7 4 5 5 6 7 7 6 6 7 6 7 7 9
4 3 4 3 3 3 3 3 3 2 3 3 3 2 2 2 2 3 3 2 2 2 2 2 3 4 4 5 5 4 5 5 6 6 6 7 7 7 8 7 7 7 9
6 5 5 4 4 4 4 4 10 9 9 9 7 5 3 7 5 8 9 9 9 10 3 4 5 5 6 5 5 6 5 6 6 6 6 6 7 7 8 8 8 9 10
7 6 5 5 5 6 5 5 4 7 13 13 14 14 15 12 12 13 13 13 12 9 4 5 6 6 6 6 6 6 7 6 5 5 7 8 7 8 8 9 9 9 10
8 5 6 6 6 5 4 4 4 5 5 5 13 15 16 18 18 17 16 13 8 8 7 7 7 7 7 7 7 7 7 7 7 7 7 8 8 8 9 9 9 10 11
8 7 6 5 5 4 4 5 5 5 6 6 4 9 9 16 17 18 18 8 8 8 7 8 8 8 8 8 8 7 8 8 8 8 8 8 8 8 10 10 10 14 14
9 10 7 6 6 6 6 6 6 7 7 7 7 7 3 2 4 6 7 8 9 9 8 9 9 9 9 9 8 8 7 8 8 8 8 8 9 9 10 11 10 11 11
7 8 12 7 7 7 7 8 8 7 8 8 8 7 13 7 8 8 8 8 9 10 10 10 10 10 9 9 9 8 8 9 9 9 9 9 9 10 10 10 11 12 12
8 8 8 9 8 8 9 8 8 8 9 9 8 8 18 9 9 9 9 10 10 10 9 10 10 10 10 9 9 8 8 9 9 9 9 9 9 10 10 11 11 11 12
9 10 9 9 9 9 8 9 9 9 10 9 9 8 8 8 9 10 11 11 10 10 10 9 11 10 11 13 14 10 9 10 9 8 9 10 11 10 10 11 12 12 13
10 11 11 9 9 9 10 10 9 11 10 9 9 9 9 10 10 12 11 10 10 10 11 10 9 12 9 12 14 16 16 17 16 13 11 11 11 12 11 12 12 16 14
9 10 10 10 10 9 9 9 9 9 9 8 9 9 10 9 10 10 9 9 9 9 10 9 12 14 14 16 19 20 20 21 22 23 17 12 15 17 14 12 16 15 18
9 9 8 7 8 8 8 8 8 8 8 9 9 9 9 9 9 9 9 8 8 8 9 7 12 15 16 18 20 21 21 22 22 24 19 11 12 12 12 16 22 15 18
Wind_Direction
23 33 46 50 50 50 56 54 54 65 69 72 73 79 79 79 70 76 69 75 76 66 63 60 58 65 56 54 57 49 46 49 107 87 118 173 168 162 144 349 321 316 312
33 39 45 51 53 56 55 53 55 60 60 63 66 68 70 67 70 76 73 73 81 59 71 58 51 53 55 42 58 65 51 25 111 125 129 131 191 76 348 324 328 308 311
41 47 52 57 60 60 59 61 62 64 62 62 66 67 69 72 73 73 77 70 61 65 67 58 70 64 61 49 37 53 57 64 61 105 118 108 83 31 331 320 329 312 314
47 50 52 56 59 62 64 65 67 69 69 65 63 68 68 74 75 76 74 71 76 73 78 69 59 59 73 71 56 53 50 62 64 75 81 82 58 69 316 334 320 319 314
54 53 53 58 59 63 64 63 67 66 67 68 70 68 70 68 67 75 76 77 76 76 70 71 73 69 70 68 62 46 50 64 60 66 71 171 42 354 347 315 308 316 306
58 58 56 60 61 61 63 66 71 69 67 70 70 72 75 77 82 80 80 78 79 72 77 75 67 56 60 65 65 60 55 54 65 64 72 24 15 322 305 315 315 324 335
63 67 65 67 67 67 74 73 71 76 76 69 70 74 75 76 80 84 87 84 76 70 67 71 71 63 53 55 53 53 52 51 47 0 339 350 310 324 313 312 301 294 281
61 67 67 68 69 66 64 68 66 68 71 75 72 72 75 74 76 77 78 77 78 74 73 70 72 70 61 54 42 45 43 48 28 338 300 286 276 290 303 296 297 293 288
65 64 65 72 81 82 80 80 74 78 75 73 73 78 81 80 79 85 93 92 82 73 67 53 55 60 38 30 25 7 355 354 341 319 308 301 300 302 299 300 281 289 295
77 72 68 72 81 82 72 70 71 75 81 79 74 61 74 74 66 63 68 75 85 99 98 84 56 34 27 16 359 355 333 332 332 319 300 307 305 295 288 274 273 265 280
92 93 92 92 85 86 83 81 88 94 98 95 96 85 60 55 84 68 60 65 62 64 55 44 34 5 358 348 344 336 305 298 313 301 294 296 292 279 265 253 243 244 257
121 106 93 70 89 95 94 100 94 107 99 97 106 102 79 47 41 50 50 68 59 36 22 357 333 324 331 322 324 304 300 311 327 300 292 287 282 278 275 271 269 263 257
145 137 140 126 122 133 141 142 135 129 128 119 133 154 150 134 142 85 25 13 17 345 328 325 327 321 319 317 305 294 305 299 282 275 271 272 273 281 287 274 260 254 255
167 175 163 174 161 179 184 191 178 178 176 173 191 194 176 189 194 195 358 4 3 339 332 348 306 293 292 278 264 270 245 253 261 269 270 269 269 268 271 273 279 282 278
179 183 203 210 210 203 239 227 232 245 233 214 216 217 202 225 227 212 295 286 282 329 115 268 281 276 279 273 262 254 248 242 245 251 266 274 278 279 277 278 273 276 271
193 199 205 204 200 215 216 226 230 235 218 226 229 221 228 247 238 237 258 263 270 280 219 267 266 261 262 263 262 266 257 253 255 262 272 275 274 276 278 277 274 271 273
207 200 209 219 216 213 213 221 223 209 234 237 238 239 236 236 240 242 249 253 261 274 234 247 257 261 264 266 265 265 269 264 260 256 258 263 267 268 273 273 274 274 274
211 226 210 207 221 220 217 223 231 234 231 227 234 239 243 246 249 254 258 268 262 249 236 251 255 255 258 260 261 259 263 267 263 262 262 265 267 270 274 271 272 273 276
208 221 214 227 216 220 223 227 232 234 242 248 243 236 234 248 254 256 255 248 251 252 244 246 241 246 248 249 253 253 254 260 261 263 266 266 264 263 266 267 269 270 272
214 220 210 209 213 212 216 218 221 227 234 237 236 238 191 135 225 234 231 235 241 247 247 245 245 244 245 245 246 247 251 256 258 255 256 259 262 260 266 270 268 273 273
211 214 213 220 221 216 216 221 226 229 235 238 242 230 226 233 247 241 240 233 234 241 244 243 245 246 245 242 240 240 245 256 257 258 259 261 264 265 263 265 270 272 274
207 210 204 216 223 226 228 228 230 233 237 243 251 244 245 243 247 247 246 247 244 243 242 244 246 244 244 241 238 239 245 256 261 260 259 263 266 266 266 266 270 272 273
208 213 217 216 217 225 232 232 234 237 244 247 249 249 241 241 244 248 251 253 251 249 247 245 248 252 250 247 242 239 247 255 259 258 262 268 269 268 267 270 272 274 272
214 219 221 226 224 222 228 233 235 235 243 248 249 249 249 248 248 250 252 257 259 259 258 257 254 254 253 249 247 243 243 252 254 253 251 259 264 270 268 268 266 266 268
215 218 222 225 227 229 236 239 242 242 243 240 244 247 254 256 258 258 259 260 260 260 260 260 260 260 254 249 251 253 256 257 256 257 262 261 263 264 263 264 265 268 270
221 227 231 233 235 238 241 245 245 245 247 247 250 253 254 258 262 265 265 262 262 263 264 263 264 262 256 258 261 263 264 265 264 262 254 249 255 258 254 253 259 259 264